📊 Raw Sensor Data
Showing records 34876 to 34900 of 84,867 total
| ID | Distance (ft) | Battery V | Battery A | Int Temp (°F) | Int Humid (%) | Ext Temp (°F) | Solar V | RSSI | SNR | Time Stamp |
|---|---|---|---|---|---|---|---|---|---|---|
| 50004 | 15.6 | 3.74 | 0 | 73 | 42 | 76 | 5.10 | -69 | 8 | 08/23/2025 08:30 AM |
| 50003 | 15.5 | 3.75 | 0 | 71 | 42 | 78 | 5.10 | -71 | 8 | 08/23/2025 08:15 AM |
| 50002 | 15.6 | 3.75 | 0 | 69 | 42 | 78 | 5.10 | -70 | 8 | 08/23/2025 08:00 AM |
| 50001 | 15.5 | 3.95 | 37 | 67 | 42 | 71 | 4.50 | -71 | 8 | 08/23/2025 07:45 AM |
| 50000 | 15.4 | 3.82 | 0 | 64 | 43 | 69 | 4.50 | -72 | 9 | 08/23/2025 07:30 AM |
| 49999 | 15.4 | 3.82 | 6 | 62 | 43 | 66 | 4.50 | -71 | 7 | 08/23/2025 07:15 AM |
| 49998 | 15.3 | 3.54 | 0 | 61 | 43 | 66 | 4.50 | -71 | 8 | 08/23/2025 07:00 AM |
| 49997 | 15.3 | 3.49 | -7 | 59 | 44 | 61 | 4.60 | -71 | 8 | 08/23/2025 06:45 AM |
| 49996 | 15.3 | 3.48 | -7 | 59 | 44 | 61 | 4.10 | -71 | 8 | 08/23/2025 06:30 AM |
| 49995 | 15.3 | 3.54 | -5 | 59 | 44 | 61 | 0.70 | -72 | 9 | 08/23/2025 06:15 AM |
| 49994 | 15.3 | 3.52 | -5 | 60 | 44 | 61 | 0.00 | -72 | 8 | 08/23/2025 06:00 AM |
| 49993 | 15.3 | 3.53 | -5 | 60 | 44 | 61 | 0.10 | -71 | 9 | 08/23/2025 05:45 AM |
| 49992 | 15.2 | 3.53 | -5 | 60 | 44 | 61 | 0.00 | -71 | 8 | 08/23/2025 05:30 AM |
| 49991 | 15.3 | 3.54 | -5 | 60 | 44 | 62 | 0.00 | -71 | 8 | 08/23/2025 05:15 AM |
| 49990 | 15.3 | 3.54 | -5 | 61 | 44 | 62 | 0.00 | -71 | 8 | 08/23/2025 05:00 AM |
| 49989 | 15.3 | 3.54 | -5 | 61 | 44 | 62 | 0.00 | -70 | 8 | 08/23/2025 04:45 AM |
| 49988 | 15.3 | 3.52 | -5 | 62 | 44 | 64 | 0.00 | -69 | 9 | 08/23/2025 04:30 AM |
| 49987 | 15.3 | 3.75 | -5 | 61 | 45 | 63 | 0.10 | -70 | 8 | 08/23/2025 04:15 AM |
| 49986 | 15.3 | 3.75 | -5 | 61 | 45 | 62 | 0.10 | -71 | 9 | 08/23/2025 04:00 AM |
| 49985 | 15.3 | 3.75 | -5 | 62 | 45 | 63 | 0.00 | -71 | 7 | 08/23/2025 03:45 AM |
| 49984 | 15.3 | 3.75 | -5 | 62 | 45 | 64 | 0.00 | -71 | 8 | 08/23/2025 03:30 AM |
| 49983 | 15.3 | 3.76 | -5 | 63 | 45 | 64 | 0.00 | -70 | 8 | 08/23/2025 03:15 AM |
| 49982 | 15.3 | 3.54 | -5 | 64 | 45 | 65 | 0.10 | -71 | 8 | 08/23/2025 03:00 AM |
| 49981 | 15.3 | 3.54 | -5 | 64 | 45 | 66 | 0.10 | -70 | 9 | 08/23/2025 02:45 AM |
| 49980 | 15.3 | 3.55 | -5 | 65 | 45 | 66 | 0.10 | -71 | 9 | 08/23/2025 02:30 AM |